TimeEDT,TemperatureF,Dew PointF,Humidity,Sea Level PressureIn,VisibilityMPH,Wind Direction,Wind SpeedMPH,Gust SpeedMPH,PrecipitationIn,Events,Conditions,WindDirDegrees,DateUTC
12:53 AM,54.0,48.9,83,29.78,10.0,North,4.6,-,N/A,,Mostly Cloudy,10,2013-06-14 04:53:00
1:53 AM,53.1,48.9,86,29.80,10.0,NNW,5.8,-,N/A,,Overcast,340,2013-06-14 05:53:00
2:23 AM,53.1,48.9,86,29.83,10.0,NW,9.2,-,N/A,,Overcast,320,2013-06-14 06:23:00
2:53 AM,53.1,48.9,86,29.81,10.0,NNW,5.8,-,N/A,,Overcast,330,2013-06-14 06:53:00
3:33 AM,52.0,48.9,89,29.83,10.0,NNW,6.9,-,N/A,,Scattered Clouds,330,2013-06-14 07:33:00
3:53 AM,52.0,48.9,89,29.82,10.0,NNW,9.2,-,N/A,,Scattered Clouds,330,2013-06-14 07:53:00
4:53 AM,52.0,48.9,89,29.83,10.0,NNW,8.1,-,N/A,,Partly Cloudy,330,2013-06-14 08:53:00
5:11 AM,51.1,48.9,92,29.84,10.0,NW,5.8,-,N/A,,Partly Cloudy,320,2013-06-14 09:11:00
5:32 AM,52.0,50.0,93,29.86,10.0,NW,3.5,-,N/A,,Mostly Cloudy,320,2013-06-14 09:32:00
5:53 AM,54.0,50.0,86,29.86,10.0,NW,5.8,-,N/A,,Overcast,320,2013-06-14 09:53:00
6:30 AM,54.0,51.1,90,29.88,10.0,North,5.8,-,N/A,,Overcast,350,2013-06-14 10:30:00
6:53 AM,55.0,51.1,86,29.88,10.0,North,3.5,-,N/A,,Overcast,350,2013-06-14 10:53:00
7:08 AM,55.0,51.1,86,29.89,10.0,NNW,5.8,-,N/A,,Overcast,330,2013-06-14 11:08:00
7:22 AM,55.0,51.1,86,29.89,10.0,NNW,4.6,-,N/A,,Overcast,340,2013-06-14 11:22:00
7:38 AM,55.9,52.0,87,29.89,10.0,NNW,6.9,-,N/A,,Overcast,330,2013-06-14 11:38:00
7:45 AM,55.9,52.0,87,29.90,10.0,NNW,5.8,-,N/A,,Overcast,330,2013-06-14 11:45:00
7:53 AM,55.9,52.0,87,29.88,10.0,North,4.6,-,N/A,,Overcast,350,2013-06-14 11:53:00
8:32 AM,57.0,52.0,83,29.91,10.0,North,8.1,-,N/A,,Overcast,350,2013-06-14 12:32:00
9:07 AM,59.0,51.1,75,29.92,10.0,North,8.1,-,N/A,,Scattered Clouds,350,2013-06-14 13:07:00
10:28 AM,64.0,53.1,67,29.94,10.0,WNW,10.4,-,N/A,,Mostly Cloudy,300,2013-06-14 14:28:00
10:53 AM,64.0,52.0,65,29.93,10.0,NNW,10.4,-,N/A,,Mostly Cloudy,330,2013-06-14 14:53:00
11:03 AM,64.0,52.0,65,29.96,10.0,NW,13.8,-,N/A,,Mostly Cloudy,320,2013-06-14 15:03:00
11:53 AM,66.0,52.0,60,29.94,10.0,NNW,11.5,-,N/A,,Mostly Cloudy,340,2013-06-14 15:53:00
12:53 PM,68.0,53.1,59,29.96,10.0,NNW,10.4,-,N/A,,Scattered Clouds,340,2013-06-14 16:53:00
1:53 PM,68.0,52.0,56,29.97,10.0,NNW,11.5,19.6,N/A,,Scattered Clouds,330,2013-06-14 17:53:00
2:53 PM,68.0,51.1,55,29.96,10.0,NNW,12.7,20.7,N/A,,Partly Cloudy,330,2013-06-14 18:53:00
3:53 PM,69.1,50.0,51,29.97,10.0,NW,15.0,24.2,N/A,,Clear,320,2013-06-14 19:53:00
4:53 PM,69.1,48.9,49,29.97,10.0,North,15.0,-,N/A,,Clear,350,2013-06-14 20:53:00
5:53 PM,66.0,48.9,54,29.97,10.0,NNW,15.0,19.6,N/A,,Clear,330,2013-06-14 21:53:00
6:53 PM,66.9,48.9,52,29.97,10.0,NW,12.7,-,N/A,,Partly Cloudy,310,2013-06-14 22:53:00
7:53 PM,64.9,50.0,58,29.99,10.0,NW,9.2,-,N/A,,Partly Cloudy,320,2013-06-14 23:53:00
8:53 PM,60.1,52.0,75,30.00,10.0,NW,4.6,-,N/A,,Unknown,310,2013-06-15 00:53:00
10:53 PM,55.9,52.0,87,30.03,10.0,WNW,3.5,-,N/A,,Clear,290,2013-06-15 02:53:00
11:53 PM,53.1,50.0,89,30.04,8.0,Calm,Calm,-,N/A,,Clear,0,2013-06-15 03:53:00